Location: *
(51.8167°N, 12.5000°E)
Time: 04:03:58
(UTC+00:00)

Cosmos 1766 - Pass Details

Date: 16 September 2019
Orbit: 521 x 546 km, 82.5° (Epoch: 23 October)

Event Time Altitude Azimuth Distance (km) Brightness Sun altitude
Exits shadow 19:19:29 28° 67° (ENE) 1,043 4.4 -17.9°
Drops below altitude 10° 19:22:08 10° 29° (NNE) 1,801 5.9 -18.3°
Sets 19:24:27 0° 19° (NNE) 2,693 7.0 -18.6°
